Weather History for Alexander City, AL

Change the Weather History Date:

Friday, February 1, 2013

  Actual Average (KAUO) Record (KAUO)
Temperature  
Mean Temperature 39 °F -  
Max Temperature 49 °F - 76 °F (1985)
Min Temperature 29 °F - 13 °F (1965)
Degree Days  
Heating Degree Days 26    
Month to date heating degree days  
Since 1 July heating degree days  
Moisture  
Dew Point 18 °F    
Average Humidity 45    
Maximum Humidity 79    
Minimum Humidity 12    
Precipitation  
Precipitation 0.00 in - 2.26 in (2007)
Month to date precipitation  
Year to date precipitation  
Sea Level Pressure  
Sea Level Pressure 30.33 in    
Wind  
Wind Speed 6 mph (NW)    
Max Wind Speed 17 mph    
Max Gust Speed 22 mph    
Visibility 10 miles    
Events      
T = Trace of Precipitation, MM = Missing Value Source: NWS Daily Summary

Daily Weather History Graph

Daily Weather History Graph

Search for Another Location

Airport:

Trip Planner

Search our weather history database for the weather conditions in past years. The results will help you decide how hot, cold, wet, or windy it might be!

Date:

Astronomy

Feb. 01, 2013 Rise Set
Actual Time 6:38 AM CST 5:16 PM CST
Civil Twilight 6:12 AM CST 5:42 PM CST
Nautical Twilight 5:43 AM CST 6:11 PM CST
Astronomical Twilight 5:14 AM CST 6:41 PM CST
Moon 10:59 PM CST 9:33 AM CST
Length of Visible Light 11h 29m
Length of Day
10h 37m
Waning Gibbous, 70% of the Moon is Illuminated
Feb 1
Waning Gibbous
Feb 3
Last Quarter
Feb 10
New
Feb 17
First Quarter
Feb 25
Full

Hourly Weather History & Observations

Time (CST) Temp. Windchill Dew Point Humidity Pressure Visibility Wind Dir Wind Speed Gust Speed Precip Events Conditions
12:15 AM 37.0 °F 33.3 °F 29.1 °F 73% 30.22 in 10.0 mi SSW 4.6 mph - N/A   Clear
12:55 AM 43.2 °F 38.4 °F 28.0 °F 55% 30.22 in 10.0 mi SW 8.1 mph - N/A   Clear
1:15 AM 43.2 °F 38.4 °F 27.7 °F 54% 30.22 in 10.0 mi SW 8.1 mph - N/A   Clear
1:35 AM 42.8 °F 39.3 °F 27.5 °F 55% 30.22 in 10.0 mi SW 5.8 mph - N/A   Clear
1:55 AM 42.8 °F 39.3 °F 27.9 °F 56% 30.21 in 10.0 mi SW 5.8 mph - N/A   Clear
2:15 AM 43.2 °F 39.7 °F 28.0 °F 55% 30.21 in 10.0 mi SW 5.8 mph - N/A   Clear
2:35 AM 42.8 °F 39.3 °F 27.9 °F 56% 30.20 in 10.0 mi SW 5.8 mph - N/A   Clear
2:55 AM 42.8 °F 38.6 °F 28.0 °F 56% 30.22 in 10.0 mi West 6.9 mph - N/A   Clear
3:15 AM 42.4 °F 39.6 °F 28.0 °F 57% 30.22 in 10.0 mi WSW 4.6 mph - N/A   Clear
3:35 AM 42.1 °F 39.2 °F 28.0 °F 58% 30.22 in 10.0 mi West 4.6 mph - N/A   Clear
3:55 AM 42.3 °F 40.5 °F 27.7 °F 56% 30.23 in 10.0 mi West 3.5 mph - N/A   Clear
4:15 AM 42.1 °F 39.2 °F 28.0 °F 58% 30.23 in 10.0 mi West 4.6 mph - N/A   Clear
4:35 AM 42.1 °F 39.2 °F 28.2 °F 58% 30.24 in 10.0 mi West 4.6 mph - N/A   Clear
4:55 AM 42.1 °F 38.4 °F 28.9 °F 60% 30.24 in 10.0 mi West 5.8 mph - N/A   Clear
5:15 AM 42.1 °F 38.4 °F 29.3 °F 61% 30.25 in 10.0 mi West 5.8 mph - N/A   Clear
5:35 AM 41.0 °F 38.0 °F 29.1 °F 63% 30.27 in 10.0 mi WNW 4.6 mph - N/A   Clear
5:55 AM 41.0 °F 39.0 °F 29.7 °F 64% 30.27 in 10.0 mi WNW 3.5 mph - N/A   Clear
6:15 AM 41.0 °F 37.1 °F 30.4 °F 66% 30.28 in 10.0 mi NW 5.8 mph - N/A   Clear
6:35 AM 39.6 °F 34.0 °F 30.4 °F 70% 30.30 in 10.0 mi NNW 8.1 mph - N/A   Clear
6:55 AM 40.3 °F 33.9 °F 30.7 °F 69% 30.31 in 10.0 mi NNW 10.4 mph - N/A   Clear
7:15 AM 40.6 °F 34.8 °F 30.4 °F 67% 30.32 in 10.0 mi NNW 9.2 mph - N/A   Clear
7:35 AM 41.0 °F 32.5 °F 21.7 °F 46% 30.33 in 10.0 mi NNW 17.3 mph 21.9 mph N/A   Clear
7:55 AM 39.9 °F 32.1 °F 18.5 °F 42% 30.34 in 10.0 mi NNW 13.8 mph - N/A   Clear
8:15 AM 39.6 °F 32.5 °F 18.0 °F 42% 30.36 in 10.0 mi North 11.5 mph - N/A   Clear
8:35 AM 40.6 °F 33.0 °F 15.6 °F 36% 30.37 in 10.0 mi NNW 13.8 mph 19.6 mph N/A   Clear
9:15 AM 40.8 °F 35.0 °F 9.1 °F 27% 30.39 in 10.0 mi NW 9.2 mph - N/A   Clear
9:35 AM 42.1 °F 37.1 °F 9.5 °F 26% 30.40 in 10.0 mi NW 8.1 mph - N/A   Clear
9:55 AM 41.7 °F 36.7 °F 8.8 °F 26% 30.40 in 10.0 mi NW 8.1 mph - N/A   Clear
10:15 AM 42.6 °F 38.4 °F 9.0 °F 25% 30.41 in 10.0 mi NW 6.9 mph - N/A   Clear
10:35 AM 42.8 °F 40.1 °F 8.1 °F 24% 30.41 in 10.0 mi North 4.6 mph - N/A   Clear
11:15 AM 44.8 °F 39.9 °F 9.5 °F 24% 30.40 in 10.0 mi NW 9.2 mph - N/A   Clear
11:35 AM 46.9 °F - 8.2 °F 21% 30.39 in 10.0 mi WNW 6.9 mph - N/A   Clear
11:55 AM 47.5 °F - 9.1 °F 21% 30.39 in 10.0 mi WNW 9.2 mph 17.3 mph N/A   Clear
12:15 PM 47.3 °F - 7.5 °F 20% 30.37 in 10.0 mi NW 10.4 mph - N/A   Clear
12:35 PM 49.6 °F - 10.0 °F 20% 30.37 in 10.0 mi North 9.2 mph - N/A   Clear
12:55 PM 49.6 °F - 8.8 °F 19% 30.36 in 10.0 mi NNW 8.1 mph - N/A   Clear
1:15 PM 49.6 °F - 4.1 °F 16% 30.36 in 10.0 mi North 9.2 mph 16.1 mph N/A   Clear
1:35 PM 49.6 °F - 5.9 °F 17% 30.36 in 10.0 mi North 12.7 mph 18.4 mph N/A   Clear
1:55 PM 49.6 °F - 5.5 °F 17% 30.36 in 10.0 mi NNW 11.5 mph 21.9 mph N/A   Clear
2:15 PM 49.6 °F - 6.6 °F 17% 30.36 in 10.0 mi NW 8.1 mph - N/A   Clear
2:35 PM 49.6 °F - 2.5 °F 15% 30.36 in 10.0 mi NNW 10.4 mph 16.1 mph N/A   Clear
2:55 PM 49.6 °F - -1.3 °F 12% 30.35 in 10.0 mi NW 9.2 mph - N/A   Clear
3:15 PM 49.6 °F - -1.5 °F 12% 30.35 in 10.0 mi NNW 10.4 mph - N/A   Clear
3:35 PM 49.6 °F - 1.8 °F 14% 30.35 in 10.0 mi NW 4.6 mph - N/A   Clear
4:15 PM 49.6 °F - 4.3 °F 16% 30.36 in 10.0 mi NNW 5.8 mph - N/A   Clear
4:35 PM 49.5 °F - 4.8 °F 16% 30.36 in 10.0 mi NNW 8.1 mph - N/A   Clear
5:15 PM 44.2 °F 41.0 °F 5.9 °F 21% 30.36 in 10.0 mi NNW 5.8 mph - N/A   Clear
5:35 PM 43.0 °F 40.3 °F 6.6 °F 22% 30.36 in 10.0 mi NNW 4.6 mph - N/A   Clear
5:55 PM 42.1 °F 39.2 °F 9.3 °F 26% 30.36 in 10.0 mi North 4.6 mph - N/A   Clear
6:15 PM 42.1 °F - 10.8 °F 28% 30.36 in 10.0 mi Calm Calm - N/A   Clear
6:35 PM 41.0 °F - 11.5 °F 30% 30.36 in 10.0 mi Calm Calm - N/A   Clear
6:55 PM 39.6 °F 36.3 °F 15.1 °F 37% 30.36 in 10.0 mi North 4.6 mph - N/A   Clear
7:15 PM 39.0 °F - 21.2 °F 49% 30.36 in 10.0 mi Calm Calm - N/A   Clear
7:35 PM 39.6 °F - 14.5 °F 36% 30.36 in 10.0 mi Calm Calm - N/A   Clear
7:55 PM 36.9 °F - 19.9 °F 50% 30.35 in 10.0 mi Calm Calm - N/A   Clear
8:15 PM 34.7 °F - 21.0 °F 57% 30.36 in 10.0 mi Calm Calm - N/A   Clear
8:35 PM 34.7 °F - 22.8 °F 62% 30.36 in 10.0 mi Calm Calm - N/A   Clear
8:55 PM 32.0 °F - 25.0 °F 75% 30.37 in 10.0 mi Calm Calm - N/A   Clear
9:15 PM 32.0 °F - 22.5 °F 68% 30.37 in 10.0 mi Calm Calm - N/A   Clear
9:35 PM 33.6 °F - 24.8 °F 70% 30.37 in 10.0 mi Calm Calm - N/A   Clear
9:55 PM 32.0 °F - 23.2 °F 70% 30.38 in 10.0 mi Calm Calm - N/A   Clear
10:15 PM 32.0 °F - 23.7 °F 71% 30.38 in 10.0 mi Calm Calm - N/A   Clear
10:35 PM 32.0 °F - 24.8 °F 75% 30.38 in 10.0 mi Calm Calm - N/A   Clear
10:55 PM 31.1 °F - 24.3 °F 76% 30.38 in 10.0 mi Calm Calm - N/A   Clear
11:15 PM 29.7 °F - 23.9 °F 79% 30.37 in 10.0 mi Calm Calm - N/A   Clear
11:35 PM 31.5 °F - 25.0 °F 77% 30.37 in 10.0 mi Calm Calm - N/A   Clear
11:55 PM 30.0 °F 26.5 °F 23.0 °F 75% 30.37 in 10.0 mi North 3.5 mph - N/A   Clear